This demonstration page uses our WeatherBlox Daily Observations layout. Learn more.

Left ArrowRight Arrow

Hourly Observations for June 28, 2015

Temp ( °F °C ) Dew Point ( °F °C ) Humidity (%) Winds ( mph kmh ) Pressure ( in mb ) Visibility ( mi km ) Precip ( " mm )
12:51 am 00:51 Clear 70 21.1 65 18.3 84 84 Calm 29.91 1013 10 16 0.00 0.00
1:51 am 01:51 Clear 71 21.7 63 17.2 76 76 N 3 6 29.87 1012 10 16 0.00 0.00
2:51 am 02:51 Clear 68 20 61 16.1 78 78 E 5 7 29.87 1012 10 16 0.00 0.00
3:51 am 03:51 Clear 67 19.4 63 17.2 87 87 NNW 5 7 29.71 1006 10 16 0.00 0.00
4:51 am 04:51 Clear 68 20 62 16.7 81 81 ENE 7 11 29.95 1014 10 16 0.00 0.00
5:51 am 05:51 Sunny 70 21.1 61 16.1 73 73 Calm 29.97 1015 10 16 0.00 0.00
6:51 am 06:51 Sunny 73 22.8 61 16.1 66 66 W 3 6 29.97 1015 10 16 0.00 0.00
7:51 am 07:51 Sunny 77 25 61 16.1 58 58 Calm 29.98 1015 10 16 0.00 0.00
8:51 am 08:51 Sunny 82 27.8 59 15 46 46 Calm 29.96 1015 10 16 0.00 0.00
9:51 am 09:51 Sunny 85 29.4 56 13.3 37 37 ESE 6 9 29.94 1014 10 16 0.00 0.00
10:51 am 10:51 Sunny 90 32.2 74 23.3 59 59 SSE 8 13 30.00 1016 10 16 0.00 0.00
11:51 am 11:51 Sunny 94 34.4 55 12.8 27 27 SSW 9 15 29.90 1012 10 16 0.00 0.00
12:51 pm 12:51 Sunny 59 15 52 11.1 78 78 NE 6 9 29.81 1010 10 16 0.00 0.00
1:51 pm 13:51 Sunny 98 36.7 53 11.7 22 22 SSW 9 15 29.81 1010 10 16 0.00 0.00
2:51 pm 14:51 Sunny 99 37.2 52 11.1 21 21 Calm 29.78 1009 10 16 0.00 0.00
3:51 pm 15:51 Partly Cloudy with Nearby Thunderstorms 99 37.2 51 10.6 20 20 VRB 3 6 29.77 1008 10 16 0.00 0.00
4:08 pm 16:08 Windy with Storms Likely 86 30 60 15.6 42 42 ENE 30 48 29.71 1006 8 13 0.00 0.03
4:40 pm 16:40 Mostly Cloudy with Nearby Thunderstorms 77 25 64 17.8 64 64 NE 21 33 29.80 1009 5 8 0.06 1.52
4:51 pm 16:51 Mostly Cloudy with Heavy Rain 76 24.4 64 17.8 67 67 NE 17 28 29.87 1011 4 6 0.11 2.79
4:59 pm 16:59 Mostly Cloudy with Thunderstorms 78 25.6 62 16.7 58 58 NE 14 22 29.80 1009 9 14 0.00 0.03
5:31 pm 17:31 Mostly Cloudy with Light Rain 81 27.2 57 13.9 44 44 E 16 26 29.83 1010 10 16 0.00 0.03
5:46 pm 17:46 Cloudy with Nearby Thunderstorms 65 18.4 55 12.7 70 70 E 9 15 29.83 1010 9 14 0.00 0.03
5:51 pm 17:51 Cloudy with Nearby Thunderstorms 84 28.9 54 12.2 36 36 Calm 29.88 1012 8 13 0.01 0.25
6:17 pm 18:17 Mostly Cloudy with Light Rain 76 24.4 61 16.1 60 60 N 5 7 29.83 1010 9 14 0.01 0.25
6:51 pm 18:51 Mostly Sunny 78 25.3 73 22.5 85 85 NNE 13 20 29.86 1011 10 16 0.02 0.51
7:51 pm 19:51 Clear 79 26.1 58 14.4 49 49 E 12 19 29.81 1009 10 16 0.00 0.00
7:58 pm 19:58 Clear 78 25.6 59 15 52 52 E 13 20 29.77 1008 10 16 0.00 0.00
8:51 pm 20:51 Clear 76 24.4 62 16.7 62 62 WNW 7 11 29.83 1010 10 16 0.00 0.00
9:51 pm 21:51 Clear 73 22.8 63 17.2 71 71 NNE 6 9 29.86 1011 10 16 0.00 0.00
10:51 pm 22:51 Clear 76 24.4 71 21.7 85 85 N 9 15 29.96 1015 10 16 0.00 0.00
11:51 pm 23:51 Clear 72 22.2 61 16.1 68 68 N 3 6 29.85 1011 10 16 0.00 0.00

Powered by AerisWeather